Погода в Цаган-Олуе

Россия / Забайкальский край     50°28′05″N   117°09′29″E
темп.,
°C
ветер,
м/с
пор.,
м/с
влажн.,
%
обл.,
%
осадки,
мм/ч
давл.,
гПа
погр.,
м
5 декабря, вс
вс500:00−13зсз11805 0.0 10149
03:00−13зсз2286100 0.0 101310
06:00−10сз3685100 0.0 1013114
09:00−7сз6158195 0.0 1014439
12:00−6сз614805 0.0 1015511
15:00−6сз815795 0.0 1016632
18:00−8сз716782 0.0 1019512
21:00−9зсз513825 0.0 1022355
6 декабря, пн
пн600:00−10зсз716825 0.0 1025569
03:00−12сз716835 0.0 1027487
06:00−14зсз24895 0.0 102955
09:00−16з249513 0.0 103056
12:00−9зюз311744 0.0 1027415
15:00−7юз26755 0.0 1023185
18:00−13з22905 0.0 102511
21:00−14з22915 0.0 102511
7 декабря, вт
вт700:00−13зсз22863 0.0 102512
03:00−13зсз22842 0.0 102511
06:00−12зсз22815 0.0 102512
09:00−13зсз22822 0.0 102710
12:00−6з12694 0.0 102538
15:00−5зюз11742 0.0 102425
18:00−10зюз01785 0.0 102610
21:00−12св01802 0.0 102710
8 декабря, ср
ср800:00−13в118460 0.0 102710
03:00−13в1187100 0.0 102612
06:00−14вюв1192100 0.0 102413
09:00−14вюв2296100 0.0 102331
12:00−12юв2289100 0.0 102183
15:00−10вюв1286100 0.0 101866
18:00−11всв1192100 0.0 101716
21:00−9св0194100 0.1 101615
9 декабря, чт
чт900:00−9сз2296100 0.3 101530
03:00−9сз3493100 0.3 101674
06:00−11зсз348989 0.0 101966
09:00−14зсз33909 0.0 102342
12:00−10зсз37770 0.0 1024275
15:00−9зсз36750 0.0 1025246
18:00−16зсз32905 0.0 103118
21:00−17сз329016 0.0 103316